Torna al catalogo

STARLINK-35385

AttivoComunicazioniVLEO
NORAD 65906·PAYLOAD·🇺🇸 United States

Lanciato Oct 7, 2025 da Cape Canaveral Space Force Station

Loading…

Prossimi Passaggi (prossime 24 ore)

TLE

AggiornatoSource: CelesTrak SupGP

Epoca: Sep 14, 2026, 22:29 UTC

1 65906C 25224AA  26257.93729167  .00007151  00000+0  21120-3 0  2576
2 65906  53.1575 207.9454 0001310  98.5029 145.2286 15.34397144    13

Traccia STARLINK-35385 in tempo reale con AllMySat

Download on the App Store